Time,TemperatureF,DewpointF,PressureIn,WindDirection,WindDirectionDegrees,WindSpeedMPH,WindSpeedGustMPH,Humidity,HourlyPrecipIn,Conditions,Clouds,dailyrainin,SoftwareType,DateUTC
2013-06-03 00:02:00,55.0,50.0,30.06,NNE,30,3.0,-999.0,81,-99.99,,,-99.99,,2013-06-03 05:02:00,
2013-06-03 00:12:00,55.0,50.0,30.06,NNE,30,3.0,-999.0,81,-99.99,,,-99.99,,2013-06-03 05:12:00,
2013-06-03 00:22:00,54.0,50.0,30.06,North,10,3.0,-999.0,87,-99.99,,,-99.99,,2013-06-03 05:22:00,
2013-06-03 00:32:00,54.0,50.0,30.07,NNE,20,3.0,-999.0,87,-99.99,,,-99.99,,2013-06-03 05:32:00,
2013-06-03 00:43:00,54.0,50.0,30.07,NNE,30,5.0,-999.0,87,-99.99,,,-99.99,,2013-06-03 05:43:00,
2013-06-03 00:52:00,54.0,50.0,30.07,NNE,20,3.0,-999.0,87,-99.99,,,-99.99,,2013-06-03 05:52:00,
2013-06-03 01:02:00,54.0,50.0,30.07,NNE,20,3.0,-999.0,87,-99.99,,,-99.99,,2013-06-03 06:02:00,
2013-06-03 01:12:00,54.0,50.0,30.07,NNE,20,3.0,-999.0,87,-99.99,,,-99.99,,2013-06-03 06:12:00,
2013-06-03 01:22:00,54.0,52.0,30.07,North,0,0.0,-999.0,93,-99.99,,,-99.99,,2013-06-03 06:22:00,
2013-06-03 01:32:00,54.0,52.0,30.07,North,0,0.0,-999.0,93,-99.99,,,-99.99,,2013-06-03 06:32:00,
2013-06-03 01:42:00,54.0,52.0,30.07,North,0,0.0,-999.0,93,-99.99,,,-99.99,,2013-06-03 06:42:00,
2013-06-03 01:52:00,54.0,52.0,30.07,North,0,0.0,-999.0,93,-99.99,,,-99.99,,2013-06-03 06:52:00,
2013-06-03 02:02:00,54.0,52.0,30.07,North,0,0.0,-999.0,93,-99.99,,,-99.99,,2013-06-03 07:02:00,
2013-06-03 02:12:00,54.0,52.0,30.07,North,0,0.0,-999.0,93,-99.99,,,-99.99,,2013-06-03 07:12:00,
2013-06-03 02:22:00,54.0,50.0,30.07,North,10,8.0,-999.0,87,-99.99,,,-99.99,,2013-06-03 07:22:00,
2013-06-03 02:32:00,54.0,46.0,30.06,NNW,340,3.0,-999.0,76,-99.99,,,-99.99,,2013-06-03 07:32:00,
2013-06-03 02:42:00,54.0,46.0,30.06,NW,320,3.0,-999.0,76,-99.99,,,-99.99,,2013-06-03 07:42:00,
2013-06-03 02:52:00,54.0,48.0,30.06,North,0,0.0,-999.0,81,-99.99,,,-99.99,,2013-06-03 07:52:00,
2013-06-03 03:02:00,54.0,48.0,30.06,North,0,0.0,-999.0,81,-99.99,,,-99.99,,2013-06-03 08:02:00,
2013-06-03 03:12:00,54.0,48.0,30.06,North,0,0.0,-999.0,81,-99.99,,,-99.99,,2013-06-03 08:12:00,
2013-06-03 03:22:00,54.0,50.0,30.06,North,0,0.0,-999.0,87,-99.99,,,-99.99,,2013-06-03 08:22:00,
2013-06-03 03:32:00,54.0,50.0,30.06,North,0,0.0,-999.0,87,-99.99,,,-99.99,,2013-06-03 08:32:00,
2013-06-03 03:42:00,54.0,50.0,30.06,North,0,0.0,-999.0,87,-99.99,,,-99.99,,2013-06-03 08:42:00,
2013-06-03 03:52:00,54.0,50.0,30.06,North,0,0.0,-999.0,87,-99.99,,,-99.99,,2013-06-03 08:52:00,
2013-06-03 04:02:00,54.0,50.0,30.06,North,0,0.0,-999.0,87,-99.99,,,-99.99,,2013-06-03 09:02:00,
2013-06-03 04:12:00,54.0,50.0,30.06,North,0,0.0,-999.0,87,-99.99,,,-99.99,,2013-06-03 09:12:00,
2013-06-03 04:22:00,52.0,50.0,30.06,North,0,0.0,-999.0,93,-99.99,,,-99.99,,2013-06-03 09:22:00,
2013-06-03 04:33:00,52.0,50.0,30.06,NW,320,3.0,-999.0,93,-99.99,,,-99.99,,2013-06-03 09:33:00,
2013-06-03 04:43:00,50.0,48.0,30.06,NW,320,3.0,-999.0,93,-99.99,,,-99.99,,2013-06-03 09:43:00,
2013-06-03 04:53:00,50.0,48.0,30.07,NW,320,3.0,-999.0,93,-99.99,,,-99.99,,2013-06-03 09:53:00,
2013-06-03 05:03:00,50.0,48.0,30.07,NW,320,3.0,-999.0,93,-99.99,,,-99.99,,2013-06-03 10:03:00,
2013-06-03 05:12:00,50.0,48.0,30.07,NW,320,3.0,-999.0,93,-99.99,,,-99.99,,2013-06-03 10:12:00,
2013-06-03 05:22:00,48.0,48.0,30.07,North,0,0.0,-999.0,100,-99.99,,,-99.99,,2013-06-03 10:22:00,
2013-06-03 05:33:00,48.0,48.0,30.08,WNW,300,3.0,-999.0,100,-99.99,,,-99.99,,2013-06-03 10:33:00,
2013-06-03 05:42:00,48.0,48.0,30.07,NW,310,3.0,-999.0,100,-99.99,,,-99.99,,2013-06-03 10:42:00,
2013-06-03 05:52:00,48.0,48.0,30.08,NW,320,3.0,-999.0,100,-99.99,,,-99.99,,2013-06-03 10:52:00,
2013-06-03 06:02:00,48.0,48.0,30.08,NW,320,3.0,-999.0,100,-99.99,,,-99.99,,2013-06-03 11:02:00,
2013-06-03 06:12:00,48.0,48.0,30.08,NW,320,3.0,-999.0,100,-99.99,,,-99.99,,2013-06-03 11:12:00,
2013-06-03 06:22:00,48.0,48.0,30.10,WNW,300,5.0,-999.0,100,-99.99,,,-99.99,,2013-06-03 11:22:00,
2013-06-03 06:32:00,48.0,48.0,30.12,West,270,3.0,-999.0,100,-99.99,,,-99.99,,2013-06-03 11:32:00,
2013-06-03 06:42:00,46.0,46.0,30.12,WNW,290,5.0,-999.0,100,-99.99,,,-99.99,,2013-06-03 11:42:00,
2013-06-03 06:52:00,48.0,48.0,30.12,North,0,0.0,-999.0,100,-99.99,,,-99.99,,2013-06-03 11:52:00,
2013-06-03 07:02:00,48.0,48.0,30.12,North,0,0.0,-999.0,100,-99.99,,,-99.99,,2013-06-03 12:02:00,
2013-06-03 07:12:00,48.0,48.0,30.12,North,0,0.0,-999.0,100,-99.99,,,-99.99,,2013-06-03 12:12:00,
2013-06-03 07:22:00,50.0,50.0,30.12,North,0,0.0,-999.0,100,-99.99,,,-99.99,,2013-06-03 12:22:00,
2013-06-03 07:32:00,52.0,52.0,30.11,North,0,0.0,-999.0,100,-99.99,,,-99.99,,2013-06-03 12:32:00,
2013-06-03 07:42:00,52.0,52.0,30.11,North,0,0.0,-999.0,100,-99.99,,,-99.99,,2013-06-03 12:42:00,
2013-06-03 07:52:00,54.0,54.0,30.11,North,0,0.0,-999.0,100,-99.99,,,-99.99,,2013-06-03 12:52:00,
2013-06-03 08:02:00,54.0,54.0,30.11,North,0,0.0,-999.0,100,-99.99,,,-99.99,,2013-06-03 13:02:00,
2013-06-03 08:12:00,54.0,54.0,30.11,North,0,0.0,-999.0,100,-99.99,,,-99.99,,2013-06-03 13:12:00,
2013-06-03 08:22:00,57.0,48.0,30.12,NNE,30,3.0,-999.0,71,-99.99,,,-99.99,,2013-06-03 13:22:00,
2013-06-03 08:32:00,57.0,48.0,30.12,NE,50,5.0,-999.0,71,-99.99,,,-99.99,,2013-06-03 13:32:00,
2013-06-03 08:43:00,57.0,48.0,30.12,ENE,70,3.0,-999.0,71,-99.99,,,-99.99,,2013-06-03 13:43:00,
2013-06-03 08:53:00,57.0,48.0,30.11,East,80,3.0,-999.0,71,-99.99,,,-99.99,,2013-06-03 13:53:00,
2013-06-03 09:02:00,57.0,48.0,30.11,East,80,3.0,-999.0,71,-99.99,,,-99.99,,2013-06-03 14:02:00,
2013-06-03 09:12:00,57.0,48.0,30.11,East,80,3.0,-999.0,71,-99.99,,,-99.99,,2013-06-03 14:12:00,
2013-06-03 09:22:00,59.0,46.0,30.11,ENE,60,3.0,-999.0,62,-99.99,,,-99.99,,2013-06-03 14:22:00,
2013-06-03 09:32:00,57.0,46.0,30.12,North,0,0.0,-999.0,67,-99.99,,,-99.99,,2013-06-03 14:32:00,
2013-06-03 09:42:00,57.0,46.0,30.12,North,0,0.0,-999.0,67,-99.99,,,-99.99,,2013-06-03 14:42:00,
2013-06-03 09:52:00,57.0,46.0,30.12,North,0,0.0,-999.0,67,-99.99,,,-99.99,,2013-06-03 14:52:00,
2013-06-03 10:02:00,57.0,46.0,30.12,North,0,0.0,-999.0,67,-99.99,,,-99.99,,2013-06-03 15:02:00,
2013-06-03 10:12:00,57.0,46.0,30.12,North,0,0.0,-999.0,67,-99.99,,,-99.99,,2013-06-03 15:12:00,
2013-06-03 10:22:00,57.0,46.0,30.12,North,0,0.0,-999.0,67,-99.99,,,-99.99,,2013-06-03 15:22:00,
2013-06-03 10:33:00,61.0,48.0,30.12,East,100,3.0,-999.0,63,-99.99,,,-99.99,,2013-06-03 15:33:00,
2013-06-03 10:43:00,59.0,46.0,30.11,North,0,0.0,-999.0,62,-99.99,,,-99.99,,2013-06-03 15:43:00,
2013-06-03 10:53:00,57.0,48.0,30.11,NNE,20,3.0,-999.0,71,-99.99,,,-99.99,,2013-06-03 15:53:00,
2013-06-03 11:03:00,57.0,48.0,30.11,NNE,20,3.0,-999.0,71,-99.99,,,-99.99,,2013-06-03 16:03:00,
2013-06-03 11:12:00,57.0,48.0,30.11,NNE,20,3.0,-999.0,71,-99.99,,,-99.99,,2013-06-03 16:12:00,
2013-06-03 11:23:00,61.0,48.0,30.10,ESE,110,5.0,-999.0,63,-99.99,,,-99.99,,2013-06-03 16:23:00,
2013-06-03 11:33:00,61.0,48.0,30.10,East,100,3.0,-999.0,63,-99.99,,,-99.99,,2013-06-03 16:33:00,
2013-06-03 11:42:00,61.0,50.0,30.09,NE,50,3.0,-999.0,67,-99.99,,,-99.99,,2013-06-03 16:42:00,
2013-06-03 11:53:00,63.0,50.0,30.09,East,90,7.0,-999.0,63,-99.99,,,-99.99,,2013-06-03 16:53:00,
2013-06-03 12:02:00,63.0,50.0,30.09,East,90,7.0,-999.0,63,-99.99,,,-99.99,,2013-06-03 17:02:00,
2013-06-03 12:12:00,63.0,50.0,30.09,East,90,7.0,-999.0,63,-99.99,,,-99.99,,2013-06-03 17:12:00,
2013-06-03 12:22:00,63.0,50.0,30.09,East,90,7.0,-999.0,63,-99.99,,,-99.99,,2013-06-03 17:22:00,
2013-06-03 12:33:00,64.0,50.0,30.08,ESE,120,3.0,-999.0,59,-99.99,,,-99.99,,2013-06-03 17:33:00,
2013-06-03 12:42:00,64.0,50.0,30.08,ESE,110,5.0,-999.0,59,-99.99,,,-99.99,,2013-06-03 17:42:00,
2013-06-03 12:52:00,64.0,50.0,30.07,ENE,60,5.0,-999.0,59,-99.99,,,-99.99,,2013-06-03 17:52:00,
2013-06-03 13:02:00,64.0,50.0,30.07,ENE,60,5.0,-999.0,59,-99.99,,,-99.99,,2013-06-03 18:02:00,
2013-06-03 13:12:00,64.0,50.0,30.07,ENE,60,5.0,-999.0,59,-99.99,,,-99.99,,2013-06-03 18:12:00,
2013-06-03 13:22:00,64.0,50.0,30.07,ENE,60,5.0,-999.0,59,-99.99,,,-99.99,,2013-06-03 18:22:00,
2013-06-03 13:32:00,64.0,50.0,30.07,SSE,150,6.0,-999.0,59,-99.99,,,-99.99,,2013-06-03 18:32:00,
2013-06-03 13:43:00,66.0,50.0,30.06,East,90,7.0,-999.0,55,-99.99,,,-99.99,,2013-06-03 18:43:00,
2013-06-03 13:53:00,64.0,50.0,30.06,North,0,0.0,-999.0,59,-99.99,,,-99.99,,2013-06-03 18:53:00,
2013-06-03 14:03:00,64.0,50.0,30.06,North,0,0.0,-999.0,59,-99.99,,,-99.99,,2013-06-03 19:03:00,
2013-06-03 14:12:00,64.0,50.0,30.06,North,0,0.0,-999.0,59,-99.99,,,-99.99,,2013-06-03 19:12:00,
2013-06-03 14:22:00,66.0,52.0,30.05,East,100,7.0,-999.0,59,-99.99,,,-99.99,,2013-06-03 19:22:00,
2013-06-03 14:32:00,66.0,50.0,30.04,North,0,0.0,-999.0,55,-99.99,,,-99.99,,2013-06-03 19:32:00,
2013-06-03 14:42:00,68.0,50.0,30.04,East,90,6.0,-999.0,52,-99.99,,,-99.99,,2013-06-03 19:42:00,
2013-06-03 14:53:00,68.0,52.0,30.04,East,90,8.0,-999.0,56,-99.99,,,-99.99,,2013-06-03 19:53:00,
2013-06-03 15:02:00,68.0,52.0,30.04,East,90,8.0,-999.0,56,-99.99,,,-99.99,,2013-06-03 20:02:00,
2013-06-03 15:12:00,68.0,52.0,30.04,East,90,8.0,-999.0,56,-99.99,,,-99.99,,2013-06-03 20:12:00,
2013-06-03 15:22:00,70.0,54.0,30.04,East,100,6.0,-999.0,56,-99.99,,,-99.99,,2013-06-03 20:22:00,
2013-06-03 15:32:00,68.0,52.0,30.04,SE,140,5.0,-999.0,56,-99.99,,,-99.99,,2013-06-03 20:32:00,
2013-06-03 15:43:00,70.0,52.0,30.04,East,100,7.0,-999.0,52,-99.99,,,-99.99,,2013-06-03 20:43:00,
2013-06-03 15:52:00,68.0,52.0,30.03,ESE,120,6.0,-999.0,56,-99.99,,,-99.99,,2013-06-03 20:52:00,
2013-06-03 16:02:00,68.0,52.0,30.03,ESE,120,6.0,-999.0,56,-99.99,,,-99.99,,2013-06-03 21:02:00,
2013-06-03 16:12:00,68.0,52.0,30.03,ESE,120,6.0,-999.0,56,-99.99,,,-99.99,,2013-06-03 21:12:00,
2013-06-03 16:22:00,70.0,52.0,30.02,ESE,120,5.0,-999.0,52,-99.99,,,-99.99,,2013-06-03 21:22:00,
2013-06-03 16:33:00,68.0,52.0,30.02,SSE,150,5.0,-999.0,56,-99.99,,,-99.99,,2013-06-03 21:33:00,
2013-06-03 16:43:00,70.0,52.0,30.01,SE,140,6.0,-999.0,52,-99.99,,,-99.99,,2013-06-03 21:43:00,
2013-06-03 16:53:00,70.0,52.0,30.01,SE,140,6.0,-999.0,52,-99.99,,,-99.99,,2013-06-03 21:53:00,
2013-06-03 17:03:00,70.0,52.0,30.01,SE,140,6.0,-999.0,52,-99.99,,,-99.99,,2013-06-03 22:03:00,
2013-06-03 17:12:00,70.0,52.0,30.01,SE,140,6.0,-999.0,52,-99.99,,,-99.99,,2013-06-03 22:12:00,
2013-06-03 17:22:00,70.0,52.0,30.01,SE,140,8.0,-999.0,52,-99.99,,,-99.99,,2013-06-03 22:22:00,
2013-06-03 17:33:00,70.0,52.0,30.00,SE,140,5.0,-999.0,52,-99.99,,,-99.99,,2013-06-03 22:33:00,
2013-06-03 17:42:00,70.0,54.0,30.00,SE,140,8.0,-999.0,56,-99.99,,,-99.99,,2013-06-03 22:42:00,
2013-06-03 17:53:00,70.0,52.0,30.00,SE,140,9.0,-999.0,52,-99.99,,,-99.99,,2013-06-03 22:53:00,
2013-06-03 18:02:00,70.0,52.0,30.00,SE,140,9.0,-999.0,52,-99.99,,,-99.99,,2013-06-03 23:02:00,
2013-06-03 18:12:00,70.0,52.0,30.00,SE,140,9.0,-999.0,52,-99.99,,,-99.99,,2013-06-03 23:12:00,
2013-06-03 18:22:00,70.0,52.0,30.00,ESE,110,6.0,-999.0,52,-99.99,,,-99.99,,2013-06-03 23:22:00,
2013-06-03 18:32:00,70.0,52.0,30.00,SSE,150,8.0,-999.0,52,-99.99,,,-99.99,,2013-06-03 23:32:00,
2013-06-03 18:42:00,68.0,52.0,30.00,SE,130,6.0,-999.0,56,-99.99,,,-99.99,,2013-06-03 23:42:00,
2013-06-03 18:52:00,68.0,52.0,30.00,SE,130,7.0,-999.0,56,-99.99,,,-99.99,,2013-06-03 23:52:00,
2013-06-03 19:02:00,68.0,52.0,30.00,SE,130,7.0,-999.0,56,-99.99,,,-99.99,,2013-06-04 00:02:00,
2013-06-03 19:12:00,68.0,52.0,30.00,SE,130,7.0,-999.0,56,-99.99,,,-99.99,,2013-06-04 00:12:00,
2013-06-03 19:22:00,68.0,52.0,30.00,ESE,120,5.0,-999.0,56,-99.99,,,-99.99,,2013-06-04 00:22:00,
2013-06-03 19:32:00,68.0,52.0,30.00,SE,130,3.0,-999.0,56,-99.99,,,-99.99,,2013-06-04 00:32:00,
2013-06-03 19:42:00,68.0,52.0,30.00,ESE,120,3.0,-999.0,56,-99.99,,,-99.99,,2013-06-04 00:42:00,
2013-06-03 19:52:00,66.0,54.0,30.01,SE,130,6.0,-999.0,63,-99.99,,,-99.99,,2013-06-04 00:52:00,
2013-06-03 20:02:00,66.0,54.0,30.01,SE,130,6.0,-999.0,63,-99.99,,,-99.99,,2013-06-04 01:02:00,
2013-06-03 20:12:00,66.0,54.0,30.01,SE,130,6.0,-999.0,63,-99.99,,,-99.99,,2013-06-04 01:12:00,
2013-06-03 20:22:00,64.0,55.0,30.01,East,100,6.0,-999.0,72,-99.99,,,-99.99,,2013-06-04 01:22:00,
2013-06-03 20:32:00,64.0,55.0,30.01,East,100,5.0,-999.0,72,-99.99,,,-99.99,,2013-06-04 01:32:00,
2013-06-03 20:42:00,63.0,55.0,30.01,East,100,6.0,-999.0,77,-99.99,,,-99.99,,2013-06-04 01:42:00,
2013-06-03 20:53:00,61.0,55.0,30.02,East,100,6.0,-999.0,82,-99.99,,,-99.99,,2013-06-04 01:53:00,
2013-06-03 21:02:00,61.0,55.0,30.02,East,100,6.0,-999.0,82,-99.99,,,-99.99,,2013-06-04 02:02:00,
2013-06-03 21:12:00,61.0,55.0,30.02,East,100,6.0,-999.0,82,-99.99,,,-99.99,,2013-06-04 02:12:00,
2013-06-03 21:22:00,61.0,54.0,30.02,East,100,6.0,-999.0,77,-99.99,,,-99.99,,2013-06-04 02:22:00,
2013-06-03 21:32:00,59.0,54.0,30.02,East,100,6.0,-999.0,82,-99.99,,,-99.99,,2013-06-04 02:32:00,
2013-06-03 21:42:00,59.0,54.0,30.03,East,100,6.0,-999.0,82,-99.99,,,-99.99,,2013-06-04 02:42:00,
2013-06-03 21:52:00,59.0,54.0,30.03,East,100,6.0,-999.0,82,-99.99,,,-99.99,,2013-06-04 02:52:00,
2013-06-03 22:02:00,59.0,54.0,30.03,East,100,6.0,-999.0,82,-99.99,,,-99.99,,2013-06-04 03:02:00,
2013-06-03 22:12:00,59.0,54.0,30.03,East,100,6.0,-999.0,82,-99.99,,,-99.99,,2013-06-04 03:12:00,
2013-06-03 22:22:00,59.0,54.0,30.03,East,100,6.0,-999.0,82,-99.99,,,-99.99,,2013-06-04 03:22:00,
2013-06-03 22:32:00,59.0,54.0,30.03,East,100,6.0,-999.0,82,-99.99,,,-99.99,,2013-06-04 03:32:00,
2013-06-03 22:43:00,57.0,54.0,30.03,East,100,7.0,-999.0,87,-99.99,,,-99.99,,2013-06-04 03:43:00,
2013-06-03 22:53:00,57.0,54.0,30.04,East,100,7.0,-999.0,87,-99.99,,,-99.99,,2013-06-04 03:53:00,
2013-06-03 23:03:00,57.0,54.0,30.04,East,100,7.0,-999.0,87,-99.99,,,-99.99,,2013-06-04 04:03:00,
2013-06-03 23:13:00,57.0,54.0,30.04,East,100,7.0,-999.0,87,-99.99,,,-99.99,,2013-06-04 04:13:00,
2013-06-03 23:23:00,57.0,52.0,30.04,ESE,110,3.0,-999.0,82,-99.99,,,-99.99,,2013-06-04 04:23:00,
2013-06-03 23:33:00,57.0,54.0,30.05,ESE,110,7.0,-999.0,87,-99.99,,,-99.99,,2013-06-04 04:33:00,
2013-06-03 23:42:00,57.0,52.0,30.04,East,100,7.0,-999.0,82,-99.99,,,-99.99,,2013-06-04 04:42:00,
2013-06-03 23:53:00,55.0,52.0,30.04,East,100,6.0,-999.0,87,-99.99,,,-99.99,,2013-06-04 04:53:00,